Regional Weather Roundup
Issued by NWS Memphis, TN

Home | Current Version | Previous Version | Text Only | Print | Product List | Glossary On
Versions: 1 2 3 4 5 6 7 8 9 10 11 12 13 14 15 16 17 18 19 20 21 22 23 24 25 26 27 28 29 30 31 32 33 34 35 36 37 38 39 40 41 42 43 44 45 46 47 48 49 50
466
ASUS44 KMEG 221510
RWRMEG
MEMPHIS CWA HOURLY WEATHER ROUNDUP
NATIONAL WEATHER SERVICE MEMPHIS TN
900 AM CST WED FEB 22 2017

...WEST TENNESSEE...

CITY           SKY/WX    TMP DP  RH WIND       PRES   REMARKS
MEMPHIS INTL   PTSUNNY   61  60  97 E8        29.90R
NWS MEMPHIS      N/A     60 N/A N/A MISG        N/A
JACKSON        MOSUNNY   61  58  90 E5        29.91R
BOLIVAR        MOSUNNY   59  57  94 NE8       29.90R
UNION CITY     MOSUNNY  N/A N/A N/A CALM      29.90S
PARIS          SUNNY     59  55  88 E5        29.91S
HUNTINGDON     SUNNY     61  57  88 CALM      29.91R


...EASTERN ARKANSAS...

CITY           SKY/WX    TMP DP  RH WIND       PRES   REMARKS
JONESBORO      CLOUDY    61  57  87 E6        29.90S
WEST MEMPHIS   MOSUNNY   61  60  97 E6        29.88R
BATESVILLE     CLOUDY    57  54  88 CALM      29.91F
NEWPORT        MOSUNNY   63  59  88 E7        29.90
WALNUT RIDGE   CLOUDY    59  55  88 CALM      29.90S
BLYTHEVILLE    FOG       58  58 100 E6        29.91S VSB 1/2
NW BLYTHEVILLE FOG       59  57  94 E6        29.90F VSB 1/4
SEARCY         CLOUDY    59  59 100 N3        29.92S FOG
STUTTGART      CLOUDY    57  52  82 N7        29.91S VSB 1/4
PINE BLUFF     CLOUDY    57  56  96 N6        29.91R FOG
MONTICELLO     CLOUDY    58  57  97 CALM      29.90R FOG


...NORTH MISSISSIPPI...

CITY           SKY/WX    TMP DP  RH WIND       PRES   REMARKS
TUPELO         CLOUDY    59  56  89 NW7       29.89R
OXFORD         LGT RAIN  57  57 100 N6        29.93R
BATESVILLE     CLOUDY    59  58  97 CALM      29.91R
OLIVE BRANCH   PTSUNNY  N/A N/A N/A NE6       29.90R
TUNICA         PTSUNNY   61  59  94 NE8       29.90S
CORINTH        FOG       57  57 100 N6        29.91R VSB 1
GREENWOOD      CLOUDY    58  56  93 N5        29.90R
COLUMBUS       CLOUDY    60  59  97 CALM      29.86S
GOLDEN TRIANGL CLOUDY    59  54  82 E5        29.83R


...SOUTHEAST MISSOURI...

CITY           SKY/WX    TMP DP  RH WIND       PRES   REMARKS
KENNETT        FOG       57  57 100 NE5       29.90R VSB<1/4
MALDEN         CLOUDY    61  59  94 NE3       29.92S FOG
WEST PLAINS    CLOUDY    58  56  93 CALM      29.91S
POPLAR BLUFF   SUNNY     62  59  90 E5        29.89S
CAPE GIRARDEAU MOSUNNY   59  57  93 SE5       29.89F FOG


...NORTHWEST ALABAMA...

CITY           SKY/WX    TMP DP  RH WIND       PRES   REMARKS
MUSCLE SHOALS  CLOUDY    61  57  87 E7        29.89R


...MIDDLE TENNESSEE...

CITY           SKY/WX    TMP DP  RH WIND       PRES   REMARKS
NASHVILLE      CLOUDY    58  55  90 VRB3      29.93S FOG
CLARKSVILLE    CLOUDY    59  55  87 CALM      29.92R
COLUMBIA       CLOUDY   N/A N/A N/A N3        29.91R


...WESTERN KENTUCKY...

CITY           SKY/WX    TMP DP  RH WIND       PRES   REMARKS
PADUCAH        CLOUDY    60  57  89 CALM      29.90S FOG
FORT CAMPBELL  PTSUNNY   58  58 100 CALM      29.91S


...CENTRAL ARKANSAS...

CITY           SKY/WX    TMP DP  RH WIND       PRES   REMARKS
LITTLE ROCK    CLOUDY    57  57 100 CALM      29.91R FOG


SKY/WX REPORTED AS FAIR MEANS FEW OR NO CLOUDS BELOW
12 THOUSAND FEET.





USA.gov is the U.S. government's official web portal to all federal, state and local government web resources and services.